Cedar City, UT

4:16 PM MST on December 06, 2016 (GMT -0700)
Cedar City Regional

Weather History for KCDC - June, 2014

Change the Weather History Date:

Monday, June 9, 2014

  Actual Average Record
Temperature  
Mean Temperature 65 °F 63 °F  
Max Temperature 89 °F 81 °F 96 °F (1985)
Min Temperature 41 °F 45 °F 33 °F (1979)
Degree Days  
Heating Degree Days 0 4  
Month to date heating degree days 5 41  
Since 1 June heating degree days 5 41  
Since 1 July heating degree days 6094 6220  
Cooling Degree Days 0 2  
Month to date cooling degree days 5 14  
Year to date cooling degree days 30 22  
Since 1 June cooling degree days 5 14  
Growing Degree Days 16 (Base 50)    
Moisture  
Dew Point 20 °F    
Average Humidity 25    
Maximum Humidity 42    
Minimum Humidity 8    
Precipitation  
Precipitation 0.00 in 0.02 in 0.27 in (1977)
Month to date precipitation 0.00 0.21  
Year to date precipitation 3.43 5.25  
Sea Level Pressure  
Sea Level Pressure 29.88 in    
Wind  
Wind Speed 4 mph (SSW)    
Max Wind Speed 12 mph    
Max Gust Speed 17 mph    
Visibility 10 miles    
Events      
T = Trace of Precipitation, MM = Missing Value Source: NWS Daily Summary

Daily Weather History Graph

Daily Weather History Graph

Search for Another Location

Airport or City:

Trip Planner

Search our weather history database for the weather conditions in past years. The results will help you decide how hot, cold, wet, or windy it might be!

Date:

Astronomy

Jun. 09, 2014 Rise Set
Actual Time 6:10 AM MDT 8:53 PM MDT
Civil Twilight 5:39 AM MDT 9:24 PM MDT
Nautical Twilight 5:00 AM MDT 10:03 PM MDT
Astronomical Twilight 4:16 AM MDT 10:46 PM MDT
Moon 5:21 PM MDT (6/9) 3:36 AM MDT (6/9)
Length of Visible Light 15h 44m
Length of Day
14h 42m
Waxing Gibbous, 85% of the Moon is Illuminated
Jun 9
Waxing Gibbous
Jun 12
Full
Jun 19
Last Quarter
Jun 27
New
Jul 5
First Quarter

Hourly Weather History & Observations

Time (MDT) Temp. Dew Point Humidity Pressure Visibility Wind Dir Wind Speed Gust Speed Precip Events Conditions
12:53 AM 55.0 °F 19.0 °F 24% 29.95 in 10.0 mi NE 3.5 mph - N/A   Clear
1:53 AM 52.0 °F 19.9 °F 28% 29.95 in 10.0 mi East 3.5 mph - N/A   Clear
2:53 AM 50.0 °F 21.9 °F 33% 29.95 in 10.0 mi Calm Calm - N/A   Clear
3:53 AM 48.0 °F 19.9 °F 33% 29.95 in 10.0 mi Calm Calm - N/A   Clear
4:53 AM 50.0 °F 19.9 °F 31% 29.95 in 10.0 mi Calm Calm - N/A   Clear
5:53 AM 46.9 °F 21.9 °F 37% 29.96 in 10.0 mi Calm Calm - N/A   Clear
6:53 AM 48.9 °F 25.0 °F 39% 29.97 in 10.0 mi South 5.8 mph - N/A   Clear
7:53 AM 54.0 °F 28.0 °F 37% 29.97 in 10.0 mi West 4.6 mph - N/A   Clear
9:53 AM 68.0 °F 25.0 °F 20% 29.96 in 10.0 mi Variable 3.5 mph - N/A   Clear
10:53 AM 73.0 °F 24.1 °F 16% 29.94 in 10.0 mi Variable 4.6 mph - N/A   Clear
11:53 AM 78.1 °F 25.0 °F 14% 29.94 in 10.0 mi West 6.9 mph - N/A   Clear
12:53 PM 82.0 °F 19.0 °F 10% 29.90 in 10.0 mi SW 5.8 mph - N/A   Clear
1:53 PM 84.9 °F 21.9 °F 10% 29.88 in 10.0 mi WNW 8.1 mph - N/A   Clear
2:53 PM 87.1 °F 23.0 °F 10% 29.85 in 10.0 mi NE 10.4 mph - N/A   Clear
3:53 PM 87.1 °F 19.0 °F 8% 29.83 in 10.0 mi South 10.4 mph - N/A   Clear
4:53 PM 86.0 °F 19.9 °F 9% 29.81 in 10.0 mi North - - N/A   Clear
5:53 PM 86.0 °F 16.0 °F 7% 29.80 in 10.0 mi SW 17.3 mph 25.3 mph N/A   Clear
6:53 PM 84.9 °F 14.0 °F 7% 29.78 in 10.0 mi SSW 10.4 mph 21.9 mph N/A   Clear
7:53 PM 82.9 °F 14.0 °F 8% 29.77 in 10.0 mi SSW 11.5 mph - N/A   Clear
8:53 PM 78.1 °F 15.1 °F 9% 29.77 in 10.0 mi SSW 13.8 mph - N/A   Clear
9:53 PM 73.9 °F 15.1 °F 11% 29.77 in 10.0 mi South 10.4 mph - N/A   Clear
10:53 PM 73.0 °F 14.0 °F 11% 29.77 in 10.0 mi South 9.2 mph - N/A   Clear
11:53 PM 72.0 °F 15.1 °F 11% 29.76 in 10.0 mi SE 4.6 mph - N/A   Clear